Погода в Ратницком

Россия / Ивановская область     56°30′56″N   40°15′04″E
темп.,
°C
ветер,
м/с
пор.,
м/с
влажн.,
%
обл.,
%
осадки,
мм/ч
давл.,
гПа
погр.,
м
22 апреля, чт
чт2200:00+3ююз4994100 0.0 1012314
03:00+3ю51094100 0.0 1013334
06:00+4ююз5994100 0.0 1014438
09:00+6ююз688880 0.4 1015573
12:00+8ююз7977100 0.0 10161030
15:00+10ююз71071100 0.1 10161183
18:00+9ююз61076100 0.0 1016534
21:00+8ююв51082100 0.0 1017245
23 апреля, пт
пт2300:00+8ююв61284100 0.0 1016388
03:00+6ююв512925 0.0 1016273
06:00+6ю5129250 0.0 1016292
09:00+12ю7126897 0.0 1016592
12:00+16ю8124727 0.0 10162209
15:00+15ю7115072 0.0 10151912
18:00+14ююв712545 0.0 1014910
21:00+10юв614685 0.0 1014335
24 апреля, сб
сб2400:00+9юв615745 0.0 1012403
03:00+8юв615815 0.0 1010345
06:00+7юв7158498 0.1 1008397
09:00+11ююв81373100 0.1 10061070
12:00+4з7992100 0.8 1007348
15:00+4з5895100 2.3 1008634
18:00+5зсз3688100 0.6 1008544
21:00+4з2390100 0.6 100762
25 апреля, вс
вс2500:00+2зюз388853 0.0 1006198
03:00+1зюз510895 0.0 1006246
06:00+1зюз511854 0.0 1007322
09:00+5з796812 0.0 10071011
12:00+7зюз8951100 0.4 10071955
15:00+8з7105097 1.2 10081854
18:00+6з586195 0.3 10081302
21:00+3зюз35798 0.3 101096
26 апреля, пн
пн2600:00+1юз49855 0.0 1010220
03:000юз38885 0.0 1010166
06:000юз49875 0.0 1010291
09:00+5юз676413 0.0 10101102
12:00+8зюз674999 0.8 10091880
15:00+8зюз6649100 1.5 10091694
18:00+6з465986 0.3 10091190
21:00+2з34783 0.3 100980